Date String (YYYY-MM-DD hh:mm:ss) UTC,Instrument flags,Ambient pressure (hPa),Sample flow (lpm),Bypass flow (lpm),Sample temperature (°C),Ambient temperature (°C),ASC tube jacket temperature (°C),LED temperature (°C),Box temperature (°C),Sample RH (%),Span deviation,Mass concentration (μg/m³),Mass concentration (μg/m³),Mass concentration (μg/m³)
DateTimeUTC,F1_M11,P_M11,Q1_M11,Q2_M11,T1_M11,T2_M11,T3_M11,T4_M11,T5_M11,U1_M11,ZSPAN_M11,X0_M11,X2_M11,X1_M11
2023-05-10 10:00:00,,0829.1,5.00,0.00,30.1,28.4,00.0,38.6,31.8,25.4,0001.8,0012.29,0007.61,0006.51
2023-05-10 10:01:00,,0829.1,5.00,0.00,30.1,28.4,00.0,38.6,31.7,25.3,0002.0,0012.25,0007.58,0006.48
2023-05-10 10:02:00,,0829.0,5.00,0.00,30.1,28.5,00.0,38.6,31.7,25.2,0001.5,0012.18,0007.54,0006.47
2023-05-10 10:03:00,,0829.0,4.99,0.00,30.1,28.5,00.0,38.6,31.7,25.2,0001.4,0012.08,0007.49,0006.45
2023-05-10 10:04:00,,0829.0,4.99,0.00,30.1,28.5,00.0,38.6,31.8,25.2,0001.8,0012.12,0007.49,0006.45
2023-05-10 10:05:00,,0829.0,5.00,0.00,30.1,28.5,00.0,38.6,31.7,25.1,0001.8,0012.12,0007.49,0006.45
2023-05-10 10:06:00,,0829.0,5.01,0.00,30.2,28.5,00.0,38.6,31.7,25.1,0002.1,0012.06,0007.49,0006.44
2023-05-10 10:07:00,,0829.1,5.01,0.00,30.2,28.5,00.0,38.6,31.8,25.1,0002.0,0012.07,0007.49,0006.43
2023-05-10 10:08:00,,0829.1,4.98,0.00,30.2,28.6,00.0,38.6,31.8,25.0,0001.4,0012.06,0007.48,0006.40
2023-05-10 10:09:00,,0829.0,5.01,0.00,30.2,28.6,00.0,38.6,31.8,25.0,0001.2,0011.98,0007.45,0006.37
2023-05-10 10:10:00,,0829.1,5.00,0.00,30.2,28.6,00.0,38.6,31.8,25.0,0001.3,0012.01,0007.44,0006.35
2023-05-10 10:11:00,,0829.1,5.00,0.00,30.2,28.6,00.0,38.6,31.8,25.0,0001.6,0011.88,0007.40,0006.32
2023-05-10 10:12:00,,0829.1,5.00,0.00,30.2,28.6,00.0,38.6,31.7,25.0,0001.7,0011.96,0007.40,0006.31
2023-05-10 10:13:00,,0829.1,5.01,0.00,30.2,28.6,00.0,38.6,31.7,24.9,0002.0,0012.15,0007.42,0006.29
2023-05-10 10:14:00,,0829.1,5.01,0.00,30.2,28.6,00.0,38.6,31.8,25.0,0001.7,0012.33,0007.45,0006.26
2023-05-10 10:15:00,,0829.1,4.99,0.00,30.2,28.6,00.0,38.6,31.7,25.1,0001.3,0012.39,0007.45,0006.24
2023-05-10 10:16:00,,0829.0,4.99,0.00,30.2,28.5,00.0,38.6,31.8,24.9,0001.0,0012.56,0007.47,0006.22
2023-05-10 10:17:00,,0829.0,5.00,0.00,30.2,28.4,00.0,38.6,31.7,25.0,0001.1,0012.53,0007.45,0006.20
2023-05-10 10:18:00,,0829.0,5.00,0.00,30.1,28.2,00.0,38.6,31.6,25.1,0001.4,0012.55,0007.41,0006.17
2023-05-10 10:19:00,,0828.9,5.00,0.00,30.1,28.1,00.0,38.6,31.6,24.7,0001.4,0012.62,0007.43,0006.17
2023-05-10 10:20:00,,0829.0,4.99,0.00,30.0,28.0,00.0,38.6,31.5,24.6,0001.3,0012.60,0007.45,0006.20
2023-05-10 10:21:00,,0828.9,5.00,0.00,30.0,27.8,00.0,38.5,31.4,24.7,0001.1,0012.51,0007.45,0006.22
2023-05-10 10:22:00,,0828.9,5.00,0.00,29.9,27.7,00.0,38.5,31.4,24.9,0001.1,0012.59,0007.48,0006.24
2023-05-10 10:23:00,,0828.9,5.01,0.00,29.9,27.6,00.0,38.5,31.3,25.0,0000.8,0012.65,0007.49,0006.26
2023-05-10 10:24:00,,0829.0,5.00,0.00,29.8,27.6,00.0,38.5,31.3,25.1,0000.6,0012.63,0007.49,0006.29
2023-05-10 10:25:00,,0828.9,5.01,0.00,29.8,27.6,00.0,38.4,31.3,25.2,0000.6,0012.64,0007.53,0006.33
2023-05-10 10:26:00,,0829.0,5.00,0.00,29.8,27.6,00.0,38.4,31.3,25.2,0000.8,0012.71,0007.58,0006.36
2023-05-10 10:27:00,,0828.9,5.00,0.00,29.7,27.6,00.0,38.4,31.3,25.3,0001.3,0012.61,0007.59,0006.40
2023-05-10 10:28:00,,0828.9,5.00,0.00,29.7,27.6,00.0,38.4,31.2,25.3,0001.1,0012.68,0007.64,0006.44
2023-05-10 10:29:00,,0829.0,5.00,0.00,29.7,27.5,00.0,38.3,31.2,25.4,0000.8,0012.68,0007.69,0006.47
2023-05-10 10:30:00,,0829.0,5.00,0.00,29.6,27.5,00.0,38.3,31.1,25.5,0000.6,0012.82,0007.73,0006.49
2023-05-10 10:31:00,,0829.0,5.00,0.00,29.6,27.5,00.0,38.3,31.1,25.5,0000.3,0012.99,0007.75,0006.51
2023-05-10 10:32:00,,0828.9,4.99,0.00,29.6,27.5,00.0,38.3,31.1,25.6,0000.1,0012.98,0007.77,0006.52
2023-05-10 10:33:00,,0828.8,5.00,0.00,29.6,27.5,00.0,38.2,31.1,25.7,-000.3,0013.00,0007.76,0006.52
2023-05-10 10:34:00,,0828.8,5.00,0.00,29.5,27.5,00.0,38.2,31.1,25.7,-000.5,0012.86,0007.75,0006.52
2023-05-10 10:35:00,,0828.8,5.00,0.00,29.5,27.4,00.0,38.2,31.0,25.8,-000.3,0012.70,0007.73,0006.52
2023-05-10 10:36:00,,0828.8,5.00,0.00,29.5,27.4,00.0,38.2,31.0,25.9,-000.1,0012.60,0007.72,0006.51
2023-05-10 10:37:00,,0828.9,5.00,0.00,29.5,27.4,00.0,38.1,31.0,25.9,-000.0,0012.53,0007.69,0006.50
2023-05-10 10:38:00,,0829.0,5.00,0.00,29.4,27.4,00.0,38.1,31.0,26.0,-000.1,0012.59,0007.72,0006.49
2023-05-10 10:39:00,,0829.0,5.00,0.00,29.4,27.4,00.0,38.1,31.0,26.0,-000.1,0012.57,0007.70,0006.48
2023-05-10 10:40:00,,0829.0,5.01,0.00,29.4,27.4,00.0,38.1,31.1,25.9,-000.1,0012.51,0007.66,0006.47
2023-05-10 10:41:00,,0829.0,4.99,0.00,29.4,27.5,00.0,38.1,31.1,25.9,0000.2,0012.54,0007.65,0006.47
2023-05-10 10:42:00,,0829.0,5.00,0.00,29.5,27.5,00.0,38.0,31.1,25.9,0000.2,0012.32,0007.66,0006.47
2023-05-10 10:43:00,,0829.0,5.00,0.00,29.5,27.6,00.0,38.0,31.1,25.9,0000.3,0012.44,0007.70,0006.49
2023-05-10 10:44:00,,0829.0,4.99,0.00,29.5,27.6,00.0,38.0,31.1,25.8,0000.3,0012.42,0007.72,0006.49
2023-05-10 10:45:00,,0829.0,5.00,0.00,29.5,27.6,00.0,38.0,31.1,25.9,0000.5,0013.05,0007.73,0006.50
2023-05-10 10:46:00,,0829.0,5.00,0.00,29.5,27.5,00.0,38.0,31.1,25.9,-000.1,0013.29,0007.73,0006.51
2023-05-10 10:47:00,,0829.0,5.00,0.00,29.5,27.5,00.0,38.0,31.1,25.9,-000.1,0013.73,0007.74,0006.54
2023-05-10 10:48:00,,0829.0,5.00,0.00,29.5,27.5,00.0,38.0,31.1,26.0,-000.2,0013.74,0007.74,0006.56
2023-05-10 10:49:00,,0829.0,5.00,0.00,29.4,27.5,00.0,38.0,31.1,26.0,-000.3,0013.57,0007.66,0006.55
2023-05-10 10:50:00,,0829.0,5.00,0.00,29.4,27.5,00.0,38.0,31.1,26.1,0000.1,0013.55,0007.65,0006.55
2023-05-10 10:51:00,,0829.0,5.00,0.00,29.4,27.5,00.0,38.0,31.1,26.1,0000.5,0013.48,0007.63,0006.54
2023-05-10 10:52:00,,0829.0,4.99,0.00,29.4,27.5,00.0,37.9,31.1,26.1,0000.8,0013.34,0007.59,0006.53
2023-05-10 10:53:00,,0829.0,4.99,0.00,29.4,27.4,00.0,37.9,31.1,26.1,0001.1,0013.31,0007.59,0006.52
2023-05-10 10:54:00,,0829.0,5.00,0.00,29.4,27.4,00.0,37.9,31.0,26.1,0001.3,0013.36,0007.53,0006.49
2023-05-10 10:55:00,,0829.0,5.00,0.00,29.4,27.4,00.0,37.9,31.0,26.1,0001.6,0013.44,0007.49,0006.47
2023-05-10 10:56:00,,0829.0,5.01,0.00,29.4,27.4,00.0,37.9,30.9,26.2,0001.6,0012.87,0007.50,0006.47
2023-05-10 10:57:00,,0829.0,5.01,0.00,29.3,27.3,00.0,37.9,30.9,26.3,0002.1,0013.43,0007.46,0006.45
2023-05-10 10:58:00,,0829.0,5.00,0.00,29.3,27.3,00.0,37.9,30.9,26.4,0002.0,0012.98,0007.42,0006.42
2023-05-10 10:59:00,,0829.0,4.99,0.00,29.3,27.3,00.0,37.9,30.9,26.4,0002.4,0012.91,0007.38,0006.40
